Hourly Weather Roundup
Issued by NWS Central Illinois

Home | Current Version | Previous Version | Text Only | Print | Product List | Glossary On
Versions: 1 2 3 4 5 6 7 8 9 10 11 12 13 14 15 16 17 18 19 20 21 22 23 24 25 26 27 28 29 30 31 32 33 34 35 36 37 38 39 40 41 42 43 44 45 46 47 48 49 50
000
NZUS43 KILX 201310
HWRILX

AREA WEATHER ROUNDUP
NATIONAL WEATHER SERVICE, LINCOLN IL
800 AM CDT SAT SEP 20 2014


CITY           SKY/WX    TMP DP  RH WIND       PRES   REMARKS
BLOOMINGTON    PTSUNNY   63  60  90 SW12      30.00S
CHAMPAIGN      MOSUNNY   62  56  80 S10       30.02F
DECATUR        MOSUNNY   63  57  81 SW10      30.02S
FLORA          SUNNY     58  58  98 S3        30.07R FOG
GALESBURG      CLOUDY    62  60  94 S9        29.94F
JACKSONVILLE   MOSUNNY   65  63  90 S6        30.01S
LACON          PTSUNNY   64  59  84 SW3       29.95R
LAWRENCEVILLE  SUNNY     59  58  96 S3        30.07S FOG
LITCHFIELD     MOSUNNY   59  58  96 S6        30.03R FOG
$$


CITY           SKY/WX    TMP DP  RH WIND       PRES   REMARKS
LINCOLN        PTSUNNY   62  59  88 CALM      29.99R
MACOMB         CLOUDY    63  61  93 SW10      29.99F
MATTOON        MOSUNNY   61  56  83 S8        30.04R
MT CARMEL AP   SUNNY     59  57  94 CALM      30.07R FOG
OLNEY-NOBLE AP SUNNY     59  59 100 CALM      30.07R FOG
PARIS          SUNNY     60  60  97 S6        30.05S
PEORIA         PTSUNNY   63  58  83 S8        29.97F HAZE
PONTIAC        PTSUNNY   64  61  88 S8        29.97F
RANTOUL        MOSUNNY   65  58  78 SW7       30.01S
ROBINSON       MOSUNNY   58  58  99 CALM      30.07S FOG
SPRINGFIELD    MOSUNNY   65  60  84 SW8       30.00S
TAYLORVILLE    MOSUNNY   61  55  82 S6        30.02S
$$

...REGIONAL REPORTS...


CITY           SKY/WX    TMP DP  RH WIND       PRES   REMARKS
CHICAGO O`HARE CLOUDY    65  55  70 SW13G18   29.89F
KANKAKEE       PTSUNNY   61  56  85 S8        29.97F
MOLINE         CLOUDY    64  61  90 SW10      29.89F FOG
MOUNT VERNON   PTSUNNY   57  54  88 CALM      30.07S
PITTSFIELD     SUNNY     67  63  87 SW6       30.02R
QUINCY         MOSUNNY   64  62  93 SW3       30.01R FOG
ROCKFORD       CLOUDY    63  58  83 S14       29.88F
$$


CITY           SKY/WX    TMP DP  RH WIND       PRES   REMARKS
BURLINGTON     PTSUNNY   64  62  93 SW9       29.94F FOG
CEDAR RAPIDS   CLOUDY    66  65  96 W8        29.86S FOG
DES MOINES     LGT RAIN  68  64  87 S9        29.86F
KIRKSVILLE     CLOUDY    66  64  93 CALM      30.02S FOG
OTTUMWA        CLOUDY    66  64  93 SW7       29.93S
ST LOUIS       PTSUNNY   69  62  78 SW5       30.03R
$$


CITY           SKY/WX    TMP DP  RH WIND       PRES   REMARKS
TERRE HAUTE    SUNNY     58  55  90 S3        30.06R FOG
EVANSVILLE     PTSUNNY   63  59  87 CALM      30.09R
INDIANAPOLIS   PTSUNNY   59  55  87 SW3       30.05S
LAFAYETTE      MOSUNNY   59  55  87 CALM      30.02S
MADISON        CLOUDY    66  62  87 VRB5      29.82S
MILWAUKEE      CLOUDY    65  58  78 SW20G30   29.78F
$$





USA.gov is the U.S. government's official web portal to all federal, state and local government web resources and services.